Location: Kawakawa
(35.3830°S, 174.0670°E)
Time: 06:11:22
(UTC+13:00)

Altair - Pass Details

Date: 06 December 2019
Orbit: 1502 x 1682 km, 47.2° (Epoch: 19 January)

Event Time Altitude Azimuth Distance (km) Brightness Sun altitude
Rises 10:48:46 0° 316° (NW) 4,755 9.9 55.8°
Reaches altitude 10° 10:51:48 10° 318° (NW) 3,799 9.5 56.4°
Maximum altitude 11:01:29 74° 40° (NE) 1,700 9.5 58.3°
Drops below altitude 10° 11:11:35 10° 122° (ESE) 3,947 10.1 60.3°
Sets 11:14:48 0° 124° (ESE) 4,948 10.4 60.9°
